SL-8 R/B

Satellite information

Favourite Embed

Satellite Type and Status

ROCKET BODYIN ORBIT

Key statistics

Satellite SL-8 R/B at a glance.

Uptime

16243

Days in orbit

Revolutions

≈ 15.0

Per day

Orbit

LEO

Low Earth Orbit

Inclination

82.9

Latest

Satellite identification and parameters

Extended collection of information and parameters for SL-8 R/B.

Object identification

Identified? True

Debris? False

Object name: SL-8 R/B

International designator: 1981-003B

Object number (NORAD): 12139

Object ID (CCSDS): 12139

Country: COMMONWEALTH OF INDEPENDENT STATES (CIS)

Current information (Y/N): Y

RCS size: LARGE

Orbital parameters

Period: 95.961 minutes

Inclination: 82.9323 deg

SMA: 6943.147 km

Apoapsis: 772.758 km

Periapsis: 357.265 km

RAAN: 155.5716 deg

Eccentricy: 0.0299211

Argument of periapsis: 307.3394 deg

Mean anomaly: 50.0907 deg

Mean motion: 15.00611489 rev/day

Mean motion (dot): 0.00013922 rev/day2

B* drag term: 0.0004125 1/REarth

Two-line elements (TLE)

Creation date: July 6, 2025, 10:36 p.m.

Reference frame: TEME

Reference center: EARTH

Epoch: July 6, 2025, 8:27 p.m. UTC

TLE line 0: 0 SL-8 R/B

TLE line 1: 1 12139U 81003B 25187.85264668 .00013922 00000-0 41250-3 0 9998

TLE line 2: 2 12139 82.9323 155.5716 0299211 307.3394 50.0907 15.00611489277673

Live tracking on map

Real-time ground track for satellite SL-8 R/B.

In-orbit conjunctions

A list of the most updated potential collisions computed for object SL-8 R/B.

Target Orbit TCA Probability of collision Miss distance Type
DELTA 1 DEB SSO 2024-10-07 09:28:55 0.0002338413 223.0 (m) DEBRIS

Associated space launch

Film-return reconnaissance satellite

SL-8 R/B was lifted into orbit during the mission ‘Soyuz U | Zenit-4MT 20’, on board a Soyuz U space rocket.

The launch took place on Jan. 16, 1981, noon from 41/1.

For more information about the launch, click the button.

Launch to space Soyuz U | Zenit-4MT 20
Soyuz U | Zenit-4MT 20

Agency: N/A

Status: Launch Successful

Launch date: Jan. 16, 1981, noon UTC

Rocket: Soyuz U

Launch pad: 41/1

Location: Plesetsk Cosmodrome, Russian Federation

...

Latest news about this satellite

There are no fresh news available about this satellite. Check back as we update our databases every day.


Newsletter sign-up

Weekly statistics, charts and insights to help you stay on top of the space industry.